Voltar ao catálogo

COSMOS 1124 DEB

AtivoHEO
NORAD 32982·DEBRIS·🇷🇺 Russia

Lançado Aug 28, 1979 de Plesetsk Cosmodrome

Loading…

Próximas Passagens (próximas 24 horas)

TLE

AtualizadoSource: Space-Track

Época: Sep 8, 2026, 03:00 UTC

1 32982U 79077H   26251.12553649  .00000176  00000-0  00000-0 0  9999
2 32982  65.4756 170.5080 6650870 328.7908   4.8277  2.09816240222656

Acompanhe COSMOS 1124 DEB em tempo real com AllMySat

Download on the App Store